VK2RZ Weather Reports


Display with metric or nautical units.
time (UTC)temp
F
wind
direction
speed
MPH
gust
MPH
rain 1hr
in
rain 24hr
in
rain mn
in
humidity
%
barometer
mb
20260906010741 67 190 5.0 15.0 0.00 0.00 0.00 4 1017.0
20260906005741 67 242 2.0 11.0 0.00 0.00 0.00 4 1017.0
20260906004741 67 199 3.0 15.0 0.00 0.00 0.00 4 1016.8
20260906003741 67 230 13.0 18.0 0.00 0.00 0.00 4 1016.7
20260906002741 66 233 4.0 5.0 0.00 0.00 0.00 4 1016.8
20260906001741 66 213 10.0 14.0 0.00 0.00 0.00 4 1016.7
20260906000741 65 224 3.0 12.0 0.00 0.00 0.00 4 1016.6
20260905235741 65 249 5.0 17.0 0.00 0.00 0.00 4 1016.3
20260905234740 64 214 5.0 11.0 0.00 0.00 0.00 5 1016.3
20260905233740 64 228 4.0 18.0 0.00 0.00 0.00 4 1016.3
20260905232740 64 214 8.0 15.0 0.00 0.00 0.00 5 1016.2
20260905231740 63 201 5.0 14.0 0.00 0.00 0.00 5 1016.2
20260905230740 63 266 8.0 17.0 0.00 0.00 0.00 5 1016.2
20260905225740 62 263 13.0 17.0 0.00 0.00 0.00 5 1016.1
20260905224740 62 210 10.0 21.0 0.00 0.00 0.00 5 1015.9
20260905223740 62 254 7.0 16.0 0.00 0.00 0.00 5 1016.0
20260905222740 61 244 9.0 23.0 0.00 0.00 0.00 5 1016.1
20260905221740 61 256 17.0 19.0 0.00 0.00 0.00 5 1016.0
20260905220740 61 203 8.0 11.0 0.00 0.00 0.00 5 1015.9
20260905215740 61 202 8.0 14.0 0.00 0.00 0.00 5 1015.6
20260905214740 60 254 10.0 16.0 0.00 0.00 0.00 5 1015.4
20260905213740 60 222 4.0 15.0 0.00 0.00 0.00 5 1015.2
20260905212740 59 285 3.0 9.0 0.00 0.00 0.00 5 1015.2
20260905211740 59 296 2.0 4.0 0.00 0.00 0.00 5 1015.1
20260905210740 59 0 0.0 3.0 0.00 0.00 0.00 5 1015.2
20260905205740 58 293 1.0 2.0 0.00 0.00 0.00 5 1014.7
20260905204739 57 0 0.0 0.0 0.00 0.00 0.00 5 1014.7
20260905203739 57 0 0.0 3.0 0.00 0.00 0.00 5 1014.3
20260905202739 56 0 0.0 0.0 0.00 0.00 0.00 5 1014.3
20260905201739 56 0 0.0 2.0 0.00 0.00 0.00 5 1013.9
20260905200739 56 324 1.0 6.0 0.00 0.00 0.00 5 1013.6
20260905195739 56 0 0.0 2.0 0.00 0.00 0.00 5 1013.6
20260905194739 57 289 2.0 3.0 0.00 0.00 0.00 5 1013.6
20260905193739 57 291 3.0 4.0 0.00 0.00 0.00 5 1013.6
20260905192739 57 290 3.0 7.0 0.00 0.00 0.00 5 1013.0
20260905191739 57 268 1.0 4.0 0.00 0.00 0.00 5 1013.3
20260905190739 58 279 3.0 6.0 0.00 0.00 0.00 5 1012.8
20260905185739 59 284 2.0 6.0 0.00 0.00 0.00 5 1012.7
20260905184739 59 287 1.0 3.0 0.00 0.00 0.00 5 1012.6
20260905183739 60 280 3.0 8.0 0.00 0.00 0.00 5 1012.4
20260905182739 60 0 0.0 4.0 0.00 0.00 0.00 5 1012.2
20260905181739 61 268 3.0 5.0 0.00 0.00 0.00 5 1011.8
20260905180739 61 251 6.0 10.0 0.00 0.00 0.00 5 1011.3
20260905175739 61 291 1.0 11.0 0.00 0.00 0.00 5 1010.9
20260905174739 61 305 5.0 9.0 0.00 0.00 0.00 5 1010.8
20260905173739 62 223 5.0 11.0 0.00 0.00 0.00 5 1010.9
20260905172739 62 268 2.0 8.0 0.00 0.00 0.00 5 1011.1
20260905171738 63 260 1.0 4.0 0.00 0.00 0.00 5 1011.0
20260905170738 64 289 2.0 6.0 0.00 0.00 0.00 4 1011.2
20260905165738 64 249 1.0 3.0 0.00 0.00 0.00 4 1011.2
20260905164738 65 235 6.0 18.0 0.00 0.00 0.00 4 1011.3
20260905163737 65 231 5.0 10.0 0.00 0.00 0.00 4 1011.4
20260905162737 65 231 5.0 11.0 0.00 0.00 0.00 4 1011.3
20260905161737 66 231 3.0 11.0 0.00 0.00 0.00 5 1011.2
20260905160736 66 202 5.0 18.0 0.00 0.00 0.00 5 1011.3
20260905155736 66 226 3.0 12.0 0.00 0.00 0.00 5 1011.4
20260905154736 67 243 4.0 8.0 0.00 0.00 0.00 5 1011.5
20260905153736 68 258 4.0 12.0 0.00 0.00 0.00 5 1011.4
20260905152736 68 260 12.0 12.0 0.00 0.00 0.00 5 1010.8
20260905151736 68 245 1.0 8.0 0.00 0.00 0.00 5 1010.7
20260905150736 67 262 4.0 15.0 0.00 0.00 0.00 5 1010.4
20260905145736 66 259 4.0 5.0 0.00 0.00 0.00 6 1010.3
20260905144736 66 257 1.0 4.0 0.00 0.00 0.00 6 1010.2
20260905143736 66 216 3.0 6.0 0.00 0.00 0.00 6 1010.1
20260905142736 67 208 2.0 5.0 0.00 0.00 0.00 6 1010.1
20260905141736 67 228 3.0 4.0 0.00 0.00 0.00 6 1010.0
20260905140736 68 248 2.0 5.0 0.00 0.00 0.00 6 1009.9
20260905135736 69 237 2.0 4.0 0.00 0.00 0.00 5 1009.8
20260905134736 69 261 4.0 9.0 0.00 0.00 0.00 5 1009.6
20260905133736 68 228 5.0 9.0 0.00 0.00 0.00 5 1009.4
20260905132736 67 0 0.0 8.0 0.00 0.00 0.00 6 1009.2
20260905131736 66 299 4.0 6.0 0.00 0.00 0.00 6 1009.3
20260905130736 66 254 3.0 5.0 0.00 0.00 0.00 6 1009.2
20260905125736 65 202 3.0 3.0 0.00 0.00 0.00 6 1009.0
20260905124736 65 202 1.0 2.0 0.00 0.00 0.00 6 1008.8
20260905123736 66 0 0.0 2.0 0.00 0.00 0.00 6 1008.8
20260905122736 67 202 1.0 3.0 0.00 0.00 0.00 6 1008.9
20260905121736 66 201 1.0 2.0 0.00 0.00 0.00 6 1008.8
20260905120736 66 0 0.0 0.0 0.00 0.00 0.00 6 1008.9
20260905115736 67 0 0.0 2.0 0.00 0.00 0.00 6 1008.9
20260905114736 67 0 0.0 0.0 0.00 0.00 0.00 6 1009.0
20260905113736 68 0 0.0 2.0 0.00 0.00 0.00 6 1009.1
20260905112736 69 0 0.0 4.0 0.00 0.00 0.00 6 1009.1
20260905111735 69 0 0.0 3.0 0.00 0.00 0.00 6 1009.0
20260905110735 70 211 1.0 3.0 0.00 0.00 0.00 5 1009.0
20260905105735 70 193 3.0 7.0 0.00 0.00 0.00 5 1008.8
20260905104739 71 193 1.0 8.0 0.00 0.00 0.00 5 1008.8
20260905104734 71 193 1.0 8.0 0.00 0.00 0.00 5 1008.8
20260905103734 71 194 1.0 4.0 0.00 0.00 0.00 5 1008.8
20260905102734 71 256 3.0 10.0 0.00 0.00 0.00 5 1008.7
20260905101734 71 150 3.0 5.0 0.00 0.00 0.00 5 1008.8
20260905100734 71 288 3.0 10.0 0.00 0.00 0.00 5 1008.6
20260905095734 72 90 2.0 6.0 0.00 0.00 0.00 5 1008.7
20260905094734 72 65 2.0 10.0 0.00 0.00 0.00 5 1008.6
20260905093733 72 85 2.0 5.0 0.00 0.00 0.00 5 1008.6
20260905092731 71 207 1.0 6.0 0.00 0.00 0.00 5 1008.7
20260905091731 71 139 2.0 4.0 0.00 0.00 0.00 5 1008.7
20260905090731 71 122 3.0 5.0 0.00 0.00 0.00 5 1008.7
20260905085731 71 111 8.0 9.0 0.00 0.00 0.00 5 1008.7
20260905084731 71 141 6.0 6.0 0.00 0.00 0.00 5 1008.7
20260905083731 71 101 3.0 6.0 0.00 0.00 0.00 5 1008.9
20260905082731 71 118 5.0 8.0 0.00 0.00 0.00 5 1009.3
20260905081731 71 92 4.0 6.0 0.00 0.00 0.00 6 1009.6
20260905080731 71 222 1.0 5.0 0.00 0.00 0.00 6 1009.9
20260905075731 71 254 3.0 12.0 0.00 0.00 0.00 6 1010.5
20260905074731 71 262 7.0 11.0 0.00 0.00 0.00 6 1010.5
20260905073731 70 231 3.0 16.0 0.00 0.00 0.00 6 1010.6
20260905072731 70 222 13.0 14.0 0.00 0.00 0.00 6 1010.6
20260905071731 71 240 13.0 18.0 0.00 0.00 0.00 6 1010.5
20260905070731 73 260 8.0 24.0 0.00 0.00 0.00 5 1010.3
20260905065731 74 233 5.0 17.0 0.00 0.00 0.00 5 1009.3
20260905064731 74 231 10.0 18.0 0.00 0.00 0.00 5 1009.7
20260905063731 74 247 5.0 24.0 0.00 0.00 0.00 5 1009.5
20260905062731 84 254 29.0 39.0 0.00 0.00 0.00 3 1008.7
20260905061731 85 175 8.0 13.0 0.00 0.00 0.00 3 1007.3
20260905060731 85 212 4.0 8.0 0.00 0.00 0.00 3 1007.3
20260905055731 86 256 3.0 9.0 0.00 0.00 0.00 3 1007.0
20260905054731 86 216 4.0 12.0 0.00 0.00 0.00 3 1006.5
20260905053731 86 282 8.0 12.0 0.00 0.00 0.00 3 1006.2
20260905052731 87 193 2.0 9.0 0.00 0.00 0.00 3 1006.1
20260905051731 87 291 3.0 17.0 0.00 0.00 0.00 2 1006.1
20260905050731 87 245 4.0 12.0 0.00 0.00 0.00 2 1006.0
20260905045731 88 262 14.0 14.0 0.00 0.00 0.00 2 1006.1
20260905044731 89 219 4.0 20.0 0.00 0.00 0.00 2 1005.9
20260905043731 89 157 2.0 14.0 0.00 0.00 0.00 2 1006.2
20260905042731 89 214 1.0 16.0 0.00 0.00 0.00 3 1006.4
20260905041731 88 93 6.0 12.0 0.00 0.00 0.00 3 1006.4
20260905040731 87 23 6.0 7.0 0.00 0.00 0.00 3 1006.4
20260905035731 86 27 2.0 6.0 0.00 0.00 0.00 3 1006.8
20260905034731 83 74 3.0 6.0 0.00 0.00 0.00 4 1006.9
20260905033731 79 69 1.0 11.0 0.00 0.00 0.00 5 1007.0
20260905032731 81 57 5.0 12.0 0.00 0.00 0.00 4 1007.4
20260905031731 84 78 4.0 7.0 0.00 0.00 0.00 3 1007.9
20260905030731 83 52 2.0 7.0 0.00 0.00 0.00 3 1008.2
20260905025731 83 72 4.0 14.0 0.00 0.00 0.00 3 1008.5
20260905024731 83 58 3.0 12.0 0.00 0.00 0.00 3 1008.9
20260905023731 82 17 7.0 7.0 0.00 0.00 0.00 3 1009.3
20260905022731 82 62 6.0 10.0 0.00 0.00 0.00 4 1009.9
20260905021731 80 81 2.0 11.0 0.00 0.00 0.00 4 1010.1
20260905020731 81 66 2.0 7.0 0.00 0.00 0.00 4 1010.5
20260905015731 81 91 4.0 7.0 0.00 0.00 0.00 4 1010.7
20260905014731 80 132 8.0 9.0 0.00 0.00 0.00 4 1010.9
20260905013731 79 38 1.0 10.0 0.00 0.00 0.00 4 1011.4
20260905012731 78 60 3.0 9.0 0.00 0.00 0.00 4 1011.5
20260905011731 78 89 2.0 8.0 0.00 0.00 0.00 4 1011.7